Temp
60 59 59 60 60 60 61 63 65 65 65 66 68 68 67 67 67 67 68 67 68 69
58 58 59 59 58 58 59 63 63 64 64 64 65 67 67 67 67 67 67 68 68 65
58 58 58 58 58 58 59 60 61 62 63 64 64 65 64 64 65 64 67 67 66 65
58 58 58 57 58 58 58 60 61 62 63 63 64 64 64 63 65 64 65 65 66 65
57 57 57 57 58 58 59 60 62 62 63 64 64 64 64 65 67 65 65 66 67 67
57 57 57 57 57 58 58 59 60 62 62 63 64 64 64 66 68 66 67 67 68 68
57 57 57 57 58 59 59 60 60 60 63 63 64 65 65 65 64 66 68 68 68 69
55 56 56 57 58 59 59 60 60 61 61 62 63 67 63 63 63 63 66 67 69 71
56 56 56 56 56 56 57 58 59 59 60 60 65 59 56 58 61 62 63 65 68 69
57 57 56 57 56 55 54 54 55 56 57 57 58 54 53 54 59 60 61 63 65 67
58 58 57 56 56 55 52 52 52 54 55 56 59 53 51 52 55 58 60 62 64 66
58 58 57 57 58 52 52 52 52 55 54 54 55 51 50 51 57 58 59 63 65 67
58 58 56 57 56 52 52 56 57 58 56 54 57 51 49 50 56 57 59 62 64 54
57 57 56 55 54 53 50 52 51 53 54 54 56 56 47 45 55 58 60 62 63 61
MSLP
1005.76 1006.22 1006.50 1006.64 1006.80 1007.17 1007.55 1007.64 1007.65 1007.72 1008.01 1008.22 1008.41 1008.40 1008.46 1008.74 1009.12 1009.36 1008.70 1008.51 1008.99 1009.11
1005.49 1006.01 1006.18 1006.28 1006.49 1006.70 1006.90 1007.24 1007.43 1007.57 1007.58 1007.98 1008.16 1008.28 1008.70 1008.77 1008.48 1008.74 1008.61 1008.55 1008.50 1008.79
1005.21 1005.44 1005.66 1006.02 1006.32 1006.46 1006.51 1006.75 1006.92 1006.98 1007.24 1007.43 1007.37 1007.66 1008.37 1008.48 1008.10 1008.36 1007.90 1008.16 1008.37 1008.38
1004.96 1005.22 1005.54 1005.91 1005.92 1006.01 1006.10 1006.21 1006.50 1006.57 1006.67 1006.73 1007.11 1007.42 1008.00 1007.88 1007.91 1007.79 1007.42 1007.51 1007.86 1007.85
1004.58 1004.93 1005.20 1005.43 1005.46 1005.50 1005.75 1005.81 1005.97 1006.14 1006.34 1006.69 1007.04 1007.21 1007.44 1007.66 1007.48 1007.44 1007.01 1006.79 1007.19 1007.13
1004.03 1004.34 1004.50 1004.74 1004.95 1005.14 1005.39 1005.57 1005.79 1006.10 1006.47 1006.45 1006.56 1006.81 1006.94 1006.96 1006.77 1006.69 1006.26 1005.98 1005.77 1005.62
1003.53 1003.68 1003.84 1004.03 1004.39 1004.49 1004.87 1005.30 1005.57 1005.78 1005.91 1006.05 1006.07 1006.10 1006.14 1006.14 1006.13 1005.84 1005.37 1005.31 1005.11 1004.66
1003.38 1003.49 1003.72 1003.79 1003.85 1004.09 1004.54 1004.89 1005.06 1005.25 1005.55 1005.67 1005.73 1005.73 1005.63 1005.51 1005.49 1005.23 1004.79 1004.44 1004.32 1003.92
1003.29 1003.59 1003.63 1003.67 1003.78 1004.14 1004.32 1004.50 1004.64 1004.74 1005.07 1005.29 1005.29 1005.09 1004.88 1004.86 1004.96 1004.70 1004.26 1004.03 1003.64 1003.29
1002.72 1002.80 1002.92 1003.18 1003.43 1003.71 1003.96 1003.98 1004.21 1004.42 1004.56 1004.65 1004.75 1004.61 1004.28 1004.15 1004.31 1004.23 1003.92 1003.65 1003.19 1002.79
1001.96 1001.97 1002.02 1002.19 1002.43 1002.76 1003.18 1003.52 1003.68 1003.74 1004.00 1004.19 1004.07 1003.97 1003.76 1003.38 1003.72 1003.74 1003.25 1002.83 1002.49 1002.25
1001.18 1001.33 1001.53 1001.74 1002.06 1002.41 1002.94 1003.08 1003.18 1003.16 1003.21 1003.31 1003.29 1003.25 1003.16 1002.95 1003.00 1002.93 1002.53 1002.05 1001.78 1001.49
1000.11 1000.27 1000.64 1000.95 1001.45 1001.71 1001.91 1002.01 1002.27 1002.21 1002.53 1002.73 1002.52 1002.31 1002.37 1002.33 1002.24 1002.40 1001.99 1001.52 1001.20 1000.88
998.68 999.02 999.41 999.93 1000.41 1000.85 1001.12 1001.35 1001.56 1001.70 1001.93 1001.99 1001.90 1001.57 1001.56 1001.43 1001.58 1001.65 1001.60 1001.32 1000.93 1000.60
Wind_Speed
6 4 4 4 4 4 4 3 3 5 4 4 4 4 3 4 6 7 6 7 7 7
6 6 6 6 3 3 3 3 5 6 4 6 6 6 6 6 8 6 6 7 9 7
8 7 7 5 6 6 5 4 4 4 4 5 3 4 5 6 6 6 7 7 7 6
7 7 5 5 5 6 4 5 5 5 5 4 5 4 5 6 8 9 10 10 10 12
7 6 6 7 7 6 7 5 6 6 4 5 6 6 6 9 9 11 11 13 10 13
8 8 8 7 5 5 5 5 5 4 6 7 7 7 7 9 10 10 11 11 12 10
8 8 7 7 6 4 3 4 5 6 7 7 7 7 7 7 8 9 10 9 10 11
6 5 6 6 5 4 4 4 6 4 5 6 6 6 7 7 8 8 10 9 9 11
6 6 6 5 5 4 4 5 3 4 6 6 6 11 13 10 7 8 8 10 11 9
7 8 7 7 6 6 7 4 5 5 5 6 7 12 14 13 6 7 7 10 11 10
7 7 6 5 6 5 2 5 6 6 6 7 6 13 16 15 6 6 8 10 12 12
11 10 8 10 11 6 6 6 6 6 7 7 7 12 15 10 6 6 8 9 11 12
14 15 13 13 12 8 7 9 6 10 9 10 11 11 14 11 3 5 6 8 8 14
15 16 14 12 10 10 8 7 7 9 10 9 11 9 13 12 3 4 5 6 6 5
Wind_Direction
169 177 189 195 185 195 187 215 255 248 253 261 252 253 233 225 231 254 238 220 217 213
182 189 200 208 193 208 206 221 235 222 215 218 206 218 217 228 235 231 234 247 242 234
193 196 203 187 214 217 234 222 238 260 240 250 235 210 218 242 244 242 252 259 255 238
198 200 193 213 235 233 238 220 225 240 256 272 266 242 226 237 256 245 253 246 248 245
197 193 198 212 228 219 223 245 233 217 214 230 230 238 224 237 241 241 250 251 239 227
207 197 202 209 227 225 229 239 245 221 230 222 224 228 225 229 241 237 243 252 270 257
199 196 192 188 199 183 191 242 248 236 235 229 233 228 237 236 243 255 261 243 254 264
237 210 204 196 185 174 174 215 225 232 243 244 239 252 240 238 249 251 268 274 260 262
193 206 202 194 194 205 214 235 230 210 226 247 255 245 245 246 250 258 271 279 276 267
211 207 199 207 204 210 215 207 245 258 254 247 244 254 256 257 256 249 251 261 270 273
221 232 244 243 247 260 219 233 245 245 237 249 251 250 256 260 254 246 251 256 264 263
218 223 220 234 243 221 212 229 233 236 247 231 244 246 255 255 246 245 254 260 259 253
215 216 216 220 223 216 209 234 233 260 254 235 248 246 250 244 218 253 269 276 261 245
209 210 212 211 210 212 207 216 229 247 251 242 237 244 243 233 211 225 261 262 257 241